Wind_Speed
10 9 8 8 9 9 9 9 10 10 10 10 10 10 10 10 11 11 11 12 12 12 11 11 11 11 11 11 11 11 11 11 10 10 11 11 11 11 11 10 10 10 10
10 10 10 9 10 10 10 10 10 11 11 10 10 10 10 10 10 11 12 12 12 13 13 12 12 12 12 12 12 12 12 12 12 12 12 12 12 11 12 12 12 12 11
11 11 12 11 10 11 11 11 11 10 11 11 10 10 10 10 11 11 12 12 12 13 13 13 13 13 13 13 13 13 13 13 12 13 13 13 13 13 13 13 13 13 13
11 11 11 11 10 10 10 10 10 10 11 11 10 10 11 11 11 12 12 12 12 13 14 14 14 14 14 14 14 14 14 14 13 13 13 13 13 13 14 14 13 14 14
11 11 11 11 11 10 10 10 10 11 11 11 11 11 11 12 12 12 12 12 13 13 14 14 14 15 15 15 15 15 14 14 14 14 13 13 14 14 14 15 14 15 15
12 12 12 11 11 11 11 11 11 11 11 11 11 12 12 13 13 13 13 13 14 14 14 14 14 15 16 16 16 16 15 15 15 15 14 14 14 15 15 15 15 16 16
13 13 13 12 12 11 12 12 13 13 13 12 12 13 13 14 14 15 14 14 14 14 15 15 15 15 16 16 17 17 16 16 16 15 15 15 15 16 16 16 16 17 17
15 14 14 12 11 11 12 13 14 14 14 14 14 14 14 15 16 16 15 15 15 15 15 15 15 15 15 16 17 17 17 17 17 17 16 16 16 17 17 17 17 18 18
16 16 15 14 14 12 12 13 14 14 14 14 15 15 14 15 15 15 15 16 16 16 16 16 16 16 16 16 17 17 17 18 18 18 18 17 17 18 18 18 17 18 18
16 16 15 15 14 13 13 13 14 15 15 15 15 15 15 15 16 16 16 16 17 17 17 16 16 16 16 17 17 17 17 17 17 18 18 18 19 18 18 18 18 18 19
16 16 15 15 15 14 14 15 15 17 16 15 16 16 16 16 17 17 17 18 18 18 18 18 17 16 16 17 17 17 18 18 17 17 18 18 19 18 18 18 18 18 19
17 17 16 17 18 17 16 16 16 17 17 17 17 17 17 18 18 18 18 18 17 17 18 18 17 17 17 17 18 18 18 18 17 18 18 19 19 19 19 19 19 19 19
17 17 16 17 18 18 17 17 17 18 18 18 19 19 19 19 20 18 18 18 19 18 17 18 18 18 18 19 19 18 19 18 18 18 19 19 19 20 20 20 20 20 20
18 17 17 17 17 18 18 18 18 18 18 19 20 20 20 20 20 19 18 18 19 19 18 19 19 19 19 19 18 18 19 19 19 19 19 19 20 20 20 20 20 20 21
18 18 18 18 18 19 19 19 18 18 18 19 20 20 21 20 20 20 19 19 20 19 19 20 19 18 19 19 20 19 20 20 20 20 20 20 20 21 20 20 20 21 21
18 19 19 19 19 19 19 19 18 19 19 19 20 21 20 19 19 19 21 21 21 20 20 20 18 18 18 20 20 20 21 21 21 21 21 21 21 21 20 21 21 21 22
18 18 18 18 19 19 20 20 20 20 20 21 20 20 20 20 20 20 21 22 21 21 21 20 19 19 19 20 21 22 22 22 22 21 22 21 21 21 21 21 21 22 22
18 18 17 17 18 19 20 19 20 21 21 21 20 20 21 20 20 21 22 22 22 21 21 21 20 21 21 22 22 22 22 22 22 22 22 21 21 21 21 21 22 22 22
19 19 19 18 18 19 20 21 21 22 21 21 21 21 21 21 21 22 22 22 22 22 21 21 21 22 22 21 22 22 22 21 22 22 22 22 21 22 21 22 22 23 23
21 20 20 20 20 20 21 21 22 22 22 21 21 21 22 22 22 23 23 23 22 21 21 21 22 22 22 22 22 22 21 21 22 23 22 22 22 22 22 23 23 24 24
21 20 20 20 21 21 21 22 22 22 23 22 22 22 22 22 23 23 23 23 23 23 22 22 22 22 22 22 22 22 22 22 22 22 22 22 22 23 24 24 25 25 24
21 20 21 21 21 22 23 23 21 21 22 22 22 23 23 22 23 22 22 23 23 23 22 22 21 21 22 22 23 23 23 23 23 23 23 23 23 24 24 25 25 26 25
22 21 20 19 19 19 20 20 20 20 20 20 21 21 22 22 22 22 22 22 23 22 22 22 21 22 21 23 24 25 24 23 24 24 24 24 24 24 25 26 26 27 27
22 21 21 19 19 19 19 19 18 18 18 18 19 19 21 21 21 21 21 21 22 22 21 21 22 22 21 22 23 25 24 24 25 24 25 26 26 25 26 26 26 27 28
21 21 20 19 17 17 17 17 16 16 16 17 18 19 19 20 20 20 21 21 21 21 22 21 22 22 22 21 22 23 24 25 25 24 24 25 25 26 26 26 26 27 27
19 17 16 15 16 16 16 16 16 16 16 17 18 18 19 20 20 20 20 19 19 20 21 21 21 22 22 21 22 22 23 24 25 25 25 24 24 25 26 26 27 27 27
Wind_Direction
315 314 314 307 297 292 293 291 292 290 288 286 279 281 283 285 285 282 278 275 274 273 273 270 266 261 259 259 259 259 258 258 259 258 257 259 259 259 258 256 254 251 249
315 317 314 307 299 293 289 287 287 285 286 284 281 280 281 283 283 283 281 276 273 271 270 269 267 264 260 259 258 258 257 258 261 261 259 260 261 261 260 257 255 253 249
316 314 314 308 299 292 286 284 285 284 285 284 281 281 281 282 282 279 279 278 274 271 270 268 268 266 264 263 262 260 260 261 263 264 263 263 263 263 262 259 256 255 252
314 314 315 312 301 292 284 280 281 283 284 284 280 280 280 281 281 278 277 276 277 274 269 266 266 266 266 266 263 262 262 263 266 265 265 266 266 265 262 258 255 255 253
309 313 313 307 297 290 284 282 281 281 284 283 282 280 279 278 278 277 277 275 275 274 271 268 265 265 266 266 265 264 265 266 268 267 267 267 266 265 263 260 256 254 254
306 309 308 303 297 291 287 287 283 278 280 281 280 280 278 276 277 278 276 276 275 272 270 268 269 267 265 265 267 266 265 267 269 267 267 266 266 267 264 263 262 259 257
300 302 304 299 292 291 289 287 286 278 277 279 280 282 279 276 276 278 278 279 276 272 270 269 270 269 265 266 267 267 268 268 269 267 267 267 268 267 265 264 262 259 257
299 298 299 297 288 284 283 287 285 280 278 276 277 279 280 278 277 278 278 279 277 273 270 270 267 268 266 266 265 266 268 269 268 266 265 265 267 268 266 264 262 257 257
296 292 291 293 289 282 282 283 281 278 280 279 275 276 280 281 279 281 280 280 280 276 269 268 267 267 267 266 266 267 268 268 268 266 265 266 266 267 265 263 261 258 256
292 291 291 290 287 282 282 281 279 278 279 279 280 276 277 278 279 280 280 280 277 273 269 266 268 269 269 267 266 267 268 269 269 268 266 266 267 266 264 262 261 259 256
292 290 288 286 283 282 281 280 279 278 277 278 281 281 278 278 278 279 278 276 273 269 267 265 268 268 266 265 267 269 268 270 269 268 266 266 266 265 264 260 260 260 259
293 289 288 282 279 279 279 277 277 277 276 278 278 279 278 277 275 276 275 274 271 271 269 265 266 267 264 263 266 269 269 270 268 268 266 266 267 266 266 262 261 260 259
289 290 289 283 278 279 280 276 277 276 277 277 276 276 275 275 274 273 274 272 271 273 269 264 267 269 267 265 265 267 268 267 268 268 265 265 266 266 265 263 262 260 258
288 286 285 284 279 281 281 281 281 278 277 276 275 277 274 274 271 272 274 269 269 270 270 267 269 268 266 265 264 266 269 268 269 268 265 266 266 264 265 263 260 261 260
291 287 286 283 280 280 280 283 282 280 278 276 277 276 275 274 270 269 270 270 271 269 269 268 269 267 267 266 266 267 270 271 270 268 267 267 266 264 264 261 259 260 261
295 290 287 285 280 278 281 283 280 278 277 275 274 275 277 276 274 271 271 271 270 268 268 267 268 270 271 269 268 269 271 272 271 270 267 267 267 264 264 261 261 261 261
296 291 287 284 282 282 283 284 282 280 276 277 277 278 277 277 275 273 273 271 269 269 270 268 269 272 270 270 267 267 269 272 270 269 268 267 267 265 265 264 262 262 262
300 297 289 284 287 285 288 288 287 285 282 284 282 281 278 277 277 275 275 271 270 269 269 271 269 271 270 271 267 267 269 271 271 267 268 268 267 266 264 263 263 263 262
303 299 294 289 288 290 291 290 288 288 287 286 286 282 279 278 278 277 274 270 269 268 268 270 270 271 270 270 265 263 267 271 272 270 269 268 267 266 265 265 264 263 263
302 301 298 294 290 290 290 288 287 286 287 286 286 284 283 282 281 278 274 270 270 270 271 269 270 272 271 270 267 264 267 271 273 272 270 268 267 267 266 267 265 264 263
301 300 297 292 290 288 288 287 285 284 284 284 284 284 284 282 281 279 273 271 269 271 272 271 270 269 270 269 267 265 267 271 274 272 270 270 268 266 265 266 266 264 263
305 299 297 293 292 289 287 287 287 287 284 285 285 284 284 283 281 281 278 276 274 274 273 271 271 271 268 267 266 265 266 270 274 274 272 271 269 268 268 267 267 265 262
308 302 299 297 296 294 292 291 289 288 287 287 286 285 285 284 283 280 280 278 276 274 273 271 271 272 269 268 267 266 266 269 272 273 273 272 271 271 270 269 267 265 263
312 306 300 298 296 295 295 294 292 290 289 289 290 288 287 286 285 282 281 278 276 274 272 273 274 272 270 270 269 269 268 270 272 272 271 272 271 271 272 270 268 265 264
313 308 304 299 294 299 300 298 298 295 292 291 291 290 290 289 288 286 284 282 278 275 273 274 273 271 271 271 270 270 270 270 271 271 271 271 270 270 271 269 268 266 265
319 312 310 309 306 307 303 302 299 296 293 291 290 289 290 290 289 288 284 282 279 276 273 274 273 271 271 272 272 272 271 271 271 272 272 272 270 269 270 270 268 268 266
Height
5885 5884 5884 5883 5883 5882 5882 5881 5881 5881 5880 5880 5879 5878 5877 5877 5876 5875 5874 5874 5873 5873 5873 5873 5873 5872 5872 5872 5871 5871 5871 5871 5871 5871 5871 5871 5871 5871 5871 5871 5871 5872 5872
5884 5883 5882 5881 5881 5881 5880 5880 5879 5879 5878 5878 5877 5876 5875 5875 5874 5873 5872 5872 5871 5871 5871 5870 5870 5870 5870 5870 5869 5869 5869 5869 5869 5869 5869 5868 5869 5869 5869 5869 5869 5869 5870
5882 5881 5880 5880 5879 5879 5878 5878 5877 5877 5877 5876 5875 5874 5874 5873 5872 5871 5870 5870 5869 5869 5869 5869 5868 5868 5868 5868 5867 5867 5867 5867 5867 5866 5866 5866 5866 5866 5866 5866 5867 5867 5867
5880 5879 5879 5878 5877 5877 5876 5876 5876 5875 5875 5874 5873 5873 5872 5871 5870 5869 5869 5867 5867 5867 5867 5866 5866 5866 5865 5865 5865 5865 5864 5864 5864 5864 5864 5863 5863 5863 5863 5864 5864 5864 5865
5878 5878 5877 5876 5876 5875 5874 5874 5874 5873 5873 5872 5871 5871 5870 5869 5868 5867 5866 5865 5865 5864 5864 5864 5864 5863 5863 5863 5862 5862 5862 5861 5861 5861 5861 5861 5860 5860 5861 5861 5861 5861 5862
5876 5876 5875 5874 5873 5873 5872 5872 5871 5871 5871 5870 5869 5868 5868 5867 5866 5865 5864 5863 5862 5862 5862 5862 5861 5861 5860 5860 5860 5859 5859 5859 5858 5859 5859 5858 5857 5857 5857 5857 5858 5858 5859
5874 5873 5872 5871 5871 5870 5870 5869 5869 5869 5868 5867 5867 5866 5865 5864 5863 5862 5861 5861 5860 5859 5859 5859 5858 5858 5857 5857 5856 5856 5856 5855 5856 5856 5856 5855 5855 5854 5854 5854 5854 5855 5855
5870 5870 5869 5868 5867 5867 5866 5866 5866 5866 5865 5864 5864 5863 5862 5861 5860 5859 5858 5858 5857 5856 5856 5855 5855 5854 5854 5853 5853 5853 5853 5852 5852 5852 5852 5852 5852 5851 5851 5851 5851 5851 5851
5867 5866 5866 5865 5864 5863 5863 5863 5862 5862 5862 5861 5860 5859 5859 5858 5857 5856 5855 5854 5854 5853 5852 5852 5852 5851 5851 5850 5850 5850 5850 5849 5849 5849 5849 5848 5848 5848 5847 5847 5847 5847 5847
5863 5862 5862 5861 5861 5860 5859 5859 5859 5859 5858 5857 5856 5856 5855 5854 5854 5853 5852 5851 5850 5849 5849 5848 5848 5848 5848 5847 5847 5846 5846 5846 5846 5846 5845 5845 5844 5844 5843 5843 5843 5843 5843
5859 5858 5858 5858 5857 5856 5856 5855 5855 5855 5854 5853 5852 5852 5851 5850 5850 5849 5848 5847 5846 5845 5845 5845 5845 5844 5844 5844 5843 5843 5842 5842 5842 5842 5842 5841 5840 5840 5839 5839 5839 5839 5839
5856 5855 5854 5853 5853 5852 5852 5851 5850 5850 5849 5849 5848 5847 5846 5846 5845 5844 5844 5842 5841 5841 5841 5841 5840 5840 5840 5840 5839 5839 5838 5838 5838 5838 5837 5837 5836 5836 5835 5835 5834 5834 5835
5852 5851 5850 5849 5848 5848 5847 5847 5846 5845 5844 5844 5843 5842 5841 5841 5840 5840 5839 5838 5837 5837 5837 5836 5836 5835 5835 5835 5835 5835 5834 5834 5833 5833 5833 5833 5832 5831 5831 5831 5830 5830 5830
5848 5847 5845 5845 5844 5843 5843 5842 5842 5840 5839 5839 5838 5837 5836 5835 5835 5834 5834 5833 5832 5832 5832 5831 5831 5831 5830 5830 5830 5830 5830 5829 5829 5828 5828 5828 5827 5827 5827 5826 5826 5826 5826
5843 5842 5842 5841 5840 5839 5838 5838 5837 5836 5835 5834 5833 5832 5831 5830 5830 5829 5829 5829 5828 5828 5827 5826 5826 5826 5826 5825 5825 5825 5825 5824 5824 5823 5823 5823 5822 5822 5822 5821 5821 5821 5821
5839 5838 5837 5836 5835 5834 5833 5833 5832 5831 5830 5829 5828 5827 5826 5826 5825 5824 5824 5824 5823 5822 5822 5821 5820 5821 5821 5821 5820 5820 5819 5819 5818 5818 5817 5817 5817 5817 5816 5816 5815 5816 5815
5835 5834 5832 5831 5830 5829 5829 5828 5827 5826 5825 5824 5823 5822 5822 5821 5820 5819 5819 5818 5818 5817 5816 5815 5815 5816 5816 5815 5815 5815 5814 5813 5813 5812 5812 5812 5812 5811 5811 5811 5811 5810 5810
5830 5829 5827 5826 5824 5823 5823 5822 5821 5820 5820 5819 5818 5817 5816 5815 5814 5814 5813 5812 5812 5811 5811 5810 5810 5810 5810 5810 5809 5809 5808 5808 5807 5807 5806 5806 5806 5806 5805 5805 5805 5805 5805
5825 5824 5822 5821 5819 5818 5817 5817 5816 5815 5814 5813 5812 5812 5811 5809 5808 5807 5806 5806 5805 5805 5805 5805 5805 5804 5804 5804 5803 5803 5802 5802 5801 5801 5800 5800 5800 5800 5800 5799 5799 5799 5799
5821 5818 5816 5815 5813 5812 5812 5811 5811 5810 5809 5808 5807 5806 5804 5803 5802 5801 5800 5799 5798 5799 5799 5798 5798 5798 5798 5797 5797 5797 5796 5795 5795 5795 5794 5794 5794 5794 5793 5793 5793 5793 5792
5816 5814 5811 5809 5808 5807 5806 5805 5805 5805 5804 5803 5801 5800 5798 5797 5796 5794 5793 5793 5792 5793 5792 5792 5792 5791 5791 5791 5790 5790 5790 5789 5789 5789 5788 5788 5787 5787 5787 5787 5787 5786 5786
5811 5808 5806 5804 5802 5801 5800 5799 5799 5798 5798 5796 5795 5794 5793 5791 5790 5788 5787 5787 5787 5786 5786 5785 5785 5785 5785 5784 5784 5784 5784 5784 5783 5782 5782 5781 5781 5780 5780 5780 5779 5779 5779
5805 5803 5800 5799 5797 5795 5794 5793 5793 5792 5791 5790 5789 5787 5786 5785 5784 5783 5782 5781 5780 5780 5780 5779 5779 5779 5778 5778 5778 5778 5778 5778 5777 5777 5775 5775 5774 5773 5773 5772 5772 5772 5772
5800 5797 5795 5793 5792 5790 5789 5788 5787 5787 5785 5785 5783 5782 5780 5779 5778 5777 5775 5775 5774 5773 5773 5772 5772 5771 5771 5771 5771 5771 5771 5771 5771 5770 5769 5768 5766 5766 5765 5765 5764 5764 5764
5795 5792 5790 5787 5785 5785 5784 5783 5782 5782 5781 5780 5778 5776 5775 5773 5772 5770 5769 5768 5767 5767 5766 5766 5765 5765 5765 5764 5764 5764 5763 5763 5763 5762 5762 5761 5759 5758 5757 5757 5756 5756 5756
5790 5788 5785 5783 5781 5780 5779 5778 5778 5777 5776 5775 5773 5771 5770 5768 5766 5764 5763 5762 5761 5761 5760 5760 5759 5758 5758 5757 5757 5757 5756 5756 5755 5754 5754 5753 5752 5751 5749 5749 5748 5748 5747